Location: Lango�lan
(48.1202°N, 3.2340°W)
Time: 11:03:36
(UTC+00:00)

CZ-4B R/B - Pass Details

Date: 23 October 2019
Orbit: 486 x 653 km, 97.8° (Epoch: 21 November)

Event Time Altitude Azimuth Distance (km) Brightness Sun altitude
Rises 04:51:45 0° 14° (NNE) 2,773 6.7 -19.3°
Reaches altitude 10° 04:53:58 10° 17° (NNE) 1,844 5.7 -18.9°
Maximum altitude 04:57:55 75° 102° (ESE) 558 2.9 -18.3°
Drops below altitude 10° 05:01:40 10° 189° (S) 1,739 5.2 -17.7°
Sets 05:03:42 0° 191° (S) 2,600 6.1 -17.3°
